Find Starlink 38378

NORAD ID: 100527 Int'l Des: 2026-197 Owner: SPXS Country: US Constellation: starlink operational

現在のビュー

3D地球を読み込み中...

About Starlink 38378

Starlink 38378 (NORAD 100527) is a starlink constellation satellite launched Aug 25, 2026 by SPXS of US. with a mass of 575.00 kg.

次回通過

Passes for default location (London). Set your location on the main map for personalized predictions.

高度履歴

Loading altitude history...

軌道要素

1 A0527U 26197AB 26251.44635468 .00147049 00000-0 70323-3 0 9998
2 A0527 69.9993 156.1283 0003355 272.9828 87.0990 15.82208418 2083
Epoch: Sep 8, 2026 • Age: 9 hours

現在のステータス

高度 336.1 km
遠地点 / 近地点 N/A
速度 7.71 km/s
衛星直下点 -37.03°S, 74.73°E
打ち上げ日 Aug 25, 2026
運用期間 14 days
タイプ internet

技術仕様

分類 Payload
質量 575.00 kg
乾燥質量 530.00 kg
総質量 575.00 kg
長さ 0.30 m
直径 4.10 m
スパン 29.00 m
形状 Box + pan
製造者 SPXS
バスタイプ Starlink V2MO
フェーズステータス In Orbit
所有者/国 SPXS/US

Most Searched